| time (UTC) | temp C | wind direction | speed KPH | gust KPH | rain 1hr cm | rain 24hr cm | rain mn cm | humidity % | barometer mb |
| 20260507114530 | 4 | 263 | 0.0 | 0.0 | 0.00 | 0.23 | 0.00 | 100 | 1012.4 |
| 20260507113034 | 4 | 263 | 0.0 | 3.2 | 0.00 | 0.23 | 0.00 | 100 | 1012.5 |
| 20260507111526 | 3 | 263 | 0.0 | 3.2 | 0.00 | 0.23 | 0.00 | 100 | 1012.3 |
| 20260507110028 | 3 | 263 | 0.0 | 0.0 | 0.00 | 0.36 | 0.00 | 100 | 1012.3 |
| 20260507104524 | 3 | 263 | 0.0 | 0.0 | 0.00 | 0.36 | 0.00 | 100 | 1012.2 |
| 20260507103024 | 2 | 263 | 0.0 | 0.0 | 0.00 | 0.36 | 0.00 | 100 | 1012.1 |
| 20260507101533 | 2 | 263 | 0.0 | 4.8 | 0.00 | 0.36 | 0.00 | 100 | 1012.1 |
| 20260507100031 | 2 | 263 | 0.0 | 0.0 | 0.00 | 0.58 | 0.00 | 100 | 1011.7 |
| 20260507094522 | 2 | 263 | 0.0 | 0.0 | 0.00 | 0.58 | 0.00 | 100 | 1011.9 |
| 20260507093035 | 2 | 263 | 0.0 | 0.0 | 0.00 | 0.58 | 0.00 | 100 | 1011.9 |
| 20260507091520 | 2 | 263 | 0.0 | 0.0 | 0.00 | 0.58 | 0.00 | 100 | 1012.0 |
| 20260507090029 | 2 | 263 | 0.0 | 0.0 | 0.00 | 0.71 | 0.00 | 100 | 1012.0 |
| 20260507084518 | 2 | 263 | 0.0 | 0.0 | 0.00 | 0.71 | 0.00 | 100 | 1011.9 |
| 20260507083032 | 2 | 263 | 0.0 | 0.0 | 0.00 | 0.71 | 0.00 | 100 | 1011.8 |
| 20260507081515 | 2 | 264 | 0.0 | 0.0 | 0.00 | 0.71 | 0.00 | 100 | 1011.9 |
| 20260507080014 | 3 | 264 | 0.0 | 0.0 | 0.00 | 0.94 | 0.00 | 100 | 1011.9 |
| 20260507074525 | 3 | 263 | 0.0 | 0.0 | 0.00 | 0.94 | 0.00 | 100 | 1011.8 |
| 20260507073010 | 3 | 264 | 0.0 | 0.0 | 0.00 | 0.94 | 0.00 | 100 | 1011.9 |
| 20260507071508 | 4 | 263 | 0.0 | 0.0 | 0.00 | 0.94 | 0.00 | 100 | 1012.0 |
| 20260507070005 | 5 | 264 | 0.0 | 0.0 | 0.00 | 1.27 | 0.00 | 100 | 1012.1 |
| 20260507064602 | 5 | 263 | 0.0 | 0.0 | 0.00 | 1.27 | 0.00 | 100 | 1012.1 |
| 20260507063101 | 5 | 263 | 0.0 | 0.0 | 0.00 | 1.27 | 0.00 | 100 | 1012.1 |
| 20260507061558 | 5 | 263 | 0.0 | 0.0 | 0.00 | 1.27 | 0.00 | 100 | 1012.1 |
| 20260507060104 | 5 | 263 | 0.0 | 0.0 | 0.00 | 1.65 | 0.00 | 100 | 1012.1 |
| 20260507054604 | 5 | 263 | 0.0 | 0.0 | 0.00 | 1.65 | 0.00 | 100 | 1012.3 |
| 20260507053056 | 6 | 263 | 0.0 | 1.6 | 0.00 | 1.65 | 0.00 | 100 | 1012.7 |
| 20260507051552 | 6 | 263 | 0.0 | 0.0 | 0.00 | 1.65 | 0.00 | 100 | 1012.8 |
| 20260507050051 | 6 | 263 | 0.0 | 0.0 | 0.00 | 1.93 | 0.00 | 100 | 1012.8 |
| 20260507044550 | 6 | 263 | 0.0 | 1.6 | 0.00 | 1.93 | 0.00 | 100 | 1012.8 |
| 20260507043049 | 6 | 263 | 0.0 | 0.0 | 0.00 | 1.93 | 0.00 | 100 | 1012.7 |
| 20260507041551 | 6 | 263 | 0.0 | 4.8 | 0.00 | 1.93 | 0.00 | 100 | 1012.6 |
| 20260507040057 | 6 | 264 | 0.0 | 6.4 | 0.00 | 2.08 | 1.93 | 100 | 1012.6 |
| 20260507034554 | 6 | 266 | 0.0 | 1.6 | 0.00 | 2.08 | 1.93 | 100 | 1012.5 |
| 20260507033045 | 6 | 266 | 0.0 | 4.8 | 0.00 | 2.08 | 1.93 | 100 | 1012.5 |
| 20260507031544 | 6 | 266 | 1.6 | 9.7 | 0.00 | 2.08 | 1.93 | 100 | 1012.5 |
| 20260507030043 | 6 | 263 | 3.2 | 6.4 | 0.00 | 2.13 | 1.93 | 100 | 1012.3 |
| 20260507024542 | 6 | 263 | 0.0 | 6.4 | 0.00 | 2.13 | 1.93 | 100 | 1012.2 |
| 20260507023041 | 6 | 263 | 0.0 | 9.7 | 0.00 | 2.13 | 1.93 | 100 | 1012.3 |
| 20260507021642 | 6 | 263 | 1.6 | 9.7 | 0.00 | 2.13 | 1.93 | 100 | 1012.3 |
| 20260507020039 | 6 | 263 | 4.8 | 9.7 | 0.00 | 2.26 | 1.93 | 100 | 1012.4 |
| 20260507014536 | 6 | 223 | 1.6 | 6.4 | 0.00 | 2.26 | 1.93 | 100 | 1012.5 |
| 20260507013038 | 6 | 283 | 3.2 | 8.0 | 0.00 | 2.26 | 1.93 | 100 | 1012.2 |
| 20260507011539 | 6 | 283 | 0.0 | 3.2 | 0.00 | 2.26 | 1.93 | 100 | 1012.0 |
| 20260507010032 | 6 | 283 | 1.6 | 12.9 | 0.00 | 2.31 | 1.93 | 100 | 1012.2 |
| 20260507004529 | 6 | 279 | 6.4 | 17.7 | 0.00 | 2.31 | 1.93 | 100 | 1012.0 |
| 20260507003026 | 6 | 302 | 3.2 | 8.0 | 0.00 | 2.31 | 1.93 | 100 | 1011.8 |
| 20260507001526 | 6 | 284 | 3.2 | 9.7 | 0.00 | 2.31 | 1.93 | 100 | 1011.2 |
| 20260507000023 | 6 | 347 | 1.6 | 9.7 | 0.00 | 2.39 | 1.93 | 100 | 1011.2 |
| 20260506234530 | 6 | 323 | 3.2 | 8.0 | 0.00 | 2.39 | 1.93 | 100 | 1011.3 |
| 20260506233021 | 7 | 313 | 1.6 | 8.0 | 0.00 | 2.39 | 1.93 | 100 | 1011.1 |
| 20260506231521 | 7 | 323 | 4.8 | 12.9 | 0.00 | 2.39 | 1.93 | 100 | 1011.0 |
| 20260506230017 | 7 | 334 | 4.8 | 14.5 | 0.00 | 2.59 | 1.93 | 100 | 1010.7 |
| 20260506224524 | 8 | 289 | 12.9 | 29.0 | 0.00 | 2.59 | 1.93 | 100 | 1010.3 |
| 20260506223012 | 9 | 260 | 12.9 | 29.0 | 0.00 | 2.59 | 1.93 | 99 | 1010.0 |
| 20260506221511 | 10 | 267 | 4.8 | 14.5 | 0.00 | 2.59 | 1.93 | 97 | 1009.4 |
| 20260506220010 | 10 | 238 | 1.6 | 6.4 | 0.00 | 2.74 | 1.93 | 97 | 1009.3 |
| 20260506214509 | 10 | 166 | 1.6 | 8.0 | 0.00 | 2.74 | 1.93 | 98 | 1009.1 |
| 20260506213018 | 10 | 138 | 1.6 | 4.8 | 0.00 | 2.74 | 1.93 | 98 | 1009.1 |
| 20260506211511 | 10 | 166 | 1.6 | 4.8 | 0.00 | 2.74 | 1.93 | 98 | 1009.1 |
| 20260506210007 | 10 | 169 | 3.2 | 6.4 | 0.00 | 2.74 | 1.93 | 98 | 1009.1 |
| 20260506204506 | 10 | 190 | 1.6 | 4.8 | 0.00 | 2.74 | 1.93 | 98 | 1009.1 |
| 20260506203004 | 10 | 190 | 1.6 | 6.4 | 0.00 | 2.74 | 1.93 | 98 | 1009.2 |
| 20260506201503 | 10 | 226 | 3.2 | 9.7 | 0.00 | 2.74 | 1.93 | 99 | 1009.3 |
| 20260506200000 | 10 | 9 | 1.6 | 4.8 | 0.00 | 2.74 | 1.93 | 100 | 1009.3 |
| 20260506194557 | 8 | 9 | 0.0 | 4.8 | 0.00 | 2.74 | 1.93 | 100 | 1009.3 |
| 20260506193057 | 8 | 9 | 1.6 | 4.8 | 0.00 | 2.74 | 1.93 | 100 | 1009.3 |
| 20260506191604 | 8 | 9 | 0.0 | 4.8 | 0.00 | 2.74 | 1.93 | 100 | 1009.3 |
| 20260506190057 | 8 | 76 | 0.0 | 3.2 | 0.00 | 2.74 | 1.93 | 100 | 1009.2 |
| 20260506184600 | 8 | 76 | 1.6 | 6.4 | 0.00 | 2.74 | 1.93 | 100 | 1009.3 |
| 20260506183058 | 8 | 46 | 0.0 | 3.2 | 0.00 | 2.74 | 1.93 | 100 | 1009.5 |
| 20260506181556 | 8 | 46 | 0.0 | 3.2 | 0.00 | 2.74 | 1.93 | 100 | 1009.4 |
| 20260506180054 | 8 | 46 | 0.0 | 3.2 | 0.00 | 2.74 | 1.93 | 100 | 1009.3 |
| 20260506174605 | 7 | 46 | 0.0 | 3.2 | 0.00 | 2.74 | 1.93 | 100 | 1009.4 |
| 20260506173054 | 7 | 46 | 0.0 | 1.6 | 0.00 | 2.74 | 1.93 | 100 | 1009.4 |
| 20260506171546 | 7 | 46 | 0.0 | 3.2 | 0.00 | 2.74 | 1.93 | 100 | 1009.0 |
| 20260506170046 | 7 | 46 | 0.0 | 3.2 | 0.00 | 2.74 | 1.93 | 100 | 1008.9 |
| 20260506164549 | 7 | 45 | 0.0 | 4.8 | 0.00 | 2.74 | 1.93 | 100 | 1008.7 |
| 20260506163057 | 7 | 71 | 0.0 | 4.8 | 0.00 | 2.74 | 1.93 | 100 | 1008.8 |
| 20260506161543 | 7 | 74 | 0.0 | 4.8 | 0.00 | 2.74 | 1.93 | 100 | 1008.8 |
| 20260506160042 | 7 | 81 | 1.6 | 6.4 | 0.00 | 2.74 | 1.93 | 100 | 1008.6 |
| 20260506154547 | 7 | 86 | 0.0 | 4.8 | 0.00 | 2.74 | 1.93 | 100 | 1008.6 |
| 20260506153040 | 7 | 89 | 1.6 | 4.8 | 0.00 | 2.74 | 1.93 | 100 | 1008.7 |
| 20260506151542 | 7 | 70 | 0.0 | 0.0 | 0.03 | 2.74 | 1.93 | 100 | 1008.4 |
| 20260506150038 | 7 | 70 | 0.0 | 4.8 | 0.03 | 2.74 | 1.93 | 100 | 1008.4 |
| 20260506144537 | 6 | 70 | 1.6 | 4.8 | 0.03 | 2.74 | 1.93 | 100 | 1008.3 |
| 20260506143038 | 6 | 71 | 0.0 | 4.8 | 0.03 | 2.74 | 1.93 | 100 | 1008.2 |
| 20260506141535 | 6 | 71 | 0.0 | 6.4 | 0.03 | 2.72 | 1.91 | 100 | 1008.0 |
| 20260506140036 | 6 | 71 | 1.6 | 6.4 | 0.03 | 2.72 | 1.91 | 100 | 1007.9 |
| 20260506134534 | 6 | 30 | 1.6 | 4.8 | 0.05 | 2.72 | 1.91 | 100 | 1007.9 |
| 20260506133034 | 6 | 30 | 1.6 | 6.4 | 0.08 | 2.72 | 1.91 | 100 | 1007.9 |
| 20260506131537 | 6 | 76 | 1.6 | 4.8 | 0.05 | 2.69 | 1.88 | 100 | 1007.9 |
| 20260506130038 | 6 | 78 | 3.2 | 6.4 | 0.08 | 2.69 | 1.88 | 100 | 1007.7 |
| 20260506124531 | 6 | 75 | 1.6 | 14.5 | 0.08 | 2.67 | 1.85 | 100 | 1007.7 |
| 20260506123031 | 6 | 53 | 1.6 | 6.4 | 0.10 | 2.64 | 1.83 | 100 | 1007.5 |
| 20260506121530 | 6 | 71 | 3.2 | 9.7 | 0.13 | 2.64 | 1.83 | 100 | 1007.4 |
| 20260506120029 | 6 | 75 | 1.6 | 6.4 | 0.13 | 2.62 | 1.80 | 100 | 1007.6 |